SL-14 DEB, 45292

Orbit data source: Space-Track

SL-14 DEB, 45292 is space debris in LEO originally from a launch on Thu, 15 Aug 1991 UTC launched from the Plesetsk Missile And Space Complex (PKMTR). Debris objects in space refer to the collection of defunct objects orbiting the Earth. Examples of debris include non-operational satellites, rocket bodies, and fragments generated from explosions, collisions, or faulty payload assembly.

Loading next visibility...
Identifier
45292, 1991-056AE
Orbit
LEO
Country
Flag of CISCIS
Related business
Manufacturer
Unknown
Mission
Spacecraft
Bus & Motor
Unknown
Mass
Unknown
Launch date (UTC)
1991-08-15 (35 years ago)
Launch vehicle
Unknown
Launch site
Plesetsk Missile And Space Complex (PKMTR)
Object type
Payload
Rocket body
Debris
Shape & HBR
Unknown shape, 0.1 m
Radar Cross Section
Small (<0.1 m²)

Expand to show TLE details & history
Last TLE update: 1 day ago

TLE from 1 day ago
0 SL-14 DEB
1 45292U 91056AE  26127.52131967  .00003641  00000-0  63176-2 0  9994
2 45292  82.6287 142.8910 0070117 288.7805  70.5734 13.42566991302092
Epoch: 2026-05-07T12:30Z
TLE epoch observation values (Epoch: 2026-05-07T12:30:42.019Z)
Latitude
-0.00002°
Longitude
89.84965°
Altitude
1,085.464 km
Speed
7.318 km/s
True Right ascension
09h 31m 33s
True Declination
0° 00' 00"
Sunlit
Object was in daylight at epoch
Visualization orbit readout
Latitude
Unknown
Longitude
Unknown
Altitude
Unknown
Speed
Unknown
Apparent Right ascension
Unknown
Apparent Declination
Unknown
Sunlit
N/A
Visualization observer readout
Local Sidereal Time
21:02:11
Azimuth
Unknown
Elevation
Unknown
Doppler factor
Unknown
Orbital elements
Apogee altitude
1,149.351 km
Perigee altitude
1,044.525 km
Semi-major axis
7,475.075 km
Eccentricity
0.00701
Inclination
82.6287°
RAAN
142.891°
Arg. of periapsis
288.7805°
True anomaly
71.33333°
Mean anomaly
70.5734°
Eccentric anomaly
70.95315°
Mean motion
3.3583 °/min
Orbital period
107.2 mins
BSTAR
0.0063176
Loading maneuver chart data...
Computing Atmospheric mass density...
Loading historical data...
Loading historical data...
Loading historical data...
Loading historical data...
Loading historical data...
Loading historical data...
Loading historical data...

Documentation

Showing up to 5 results
|